Time,TemperatureF,DewpointF,PressureIn,WindDirection,WindDirectionDegrees,WindSpeedMPH,WindSpeedGustMPH,Humidity,HourlyPrecipIn,Conditions,Clouds,dailyrainin,SoftwareType,DateUTC
2013-04-27 00:05:00,53.6,13.5,0.00,North,0,0.0,0.0,20,0.00,,,0.00,VWS V13.01,2013-04-27 04:05:00,
2013-04-27 00:10:00,53.4,14.5,0.00,North,0,0.0,0.0,21,0.00,,,0.00,VWS V13.01,2013-04-27 04:10:00,
2013-04-27 00:15:00,53.2,16.4,0.00,North,0,0.0,0.0,23,0.00,,,0.00,VWS V13.01,2013-04-27 04:15:00,
2013-04-27 00:20:00,53.2,16.4,0.00,North,0,0.0,0.0,23,0.00,,,0.00,VWS V13.01,2013-04-27 04:20:00,
2013-04-27 00:25:00,53.1,16.3,0.00,North,0,0.0,0.0,23,0.00,,,0.00,VWS V13.01,2013-04-27 04:25:00,
2013-04-27 00:30:00,53.1,16.3,0.00,North,0,0.0,0.0,23,0.00,,,0.00,VWS V13.01,2013-04-27 04:30:00,
2013-04-27 00:35:00,52.9,16.1,0.00,North,0,0.0,0.0,23,0.00,,,0.00,VWS V13.01,2013-04-27 04:35:00,
2013-04-27 00:40:00,52.9,16.1,0.00,North,0,0.0,0.0,23,0.00,,,0.00,VWS V13.01,2013-04-27 04:40:00,
2013-04-27 00:45:00,52.7,18.8,0.00,North,0,0.0,0.0,26,0.00,,,0.00,VWS V13.01,2013-04-27 04:45:00,
2013-04-27 00:50:00,52.7,18.8,0.00,North,0,0.0,0.0,26,0.00,,,0.00,VWS V13.01,2013-04-27 04:50:00,
2013-04-27 00:55:00,52.5,18.6,0.00,North,0,0.0,0.0,26,0.00,,,0.00,VWS V13.01,2013-04-27 04:55:00,
2013-04-27 01:00:00,52.3,19.4,0.00,North,0,0.0,0.0,27,0.00,,,0.00,VWS V13.01,2013-04-27 05:00:00,
2013-04-27 01:05:00,52.3,18.5,0.00,North,0,0.0,0.0,26,0.00,,,0.00,VWS V13.01,2013-04-27 05:05:00,
2013-04-27 01:10:00,52.2,18.3,0.00,North,0,0.0,0.0,26,0.00,,,0.00,VWS V13.01,2013-04-27 05:10:00,
2013-04-27 01:15:00,52.0,18.2,0.00,North,0,0.0,0.0,26,0.00,,,0.00,VWS V13.01,2013-04-27 05:15:00,
2013-04-27 01:20:00,52.0,18.2,0.00,North,0,0.0,0.0,26,0.00,,,0.00,VWS V13.01,2013-04-27 05:20:00,
2013-04-27 01:25:00,52.0,18.2,0.00,North,0,0.0,0.0,26,0.00,,,0.00,VWS V13.01,2013-04-27 05:25:00,
2013-04-27 01:30:00,51.8,18.9,0.00,North,0,0.0,0.0,27,0.00,,,0.00,VWS V13.01,2013-04-27 05:30:00,
2013-04-27 01:35:00,51.6,18.8,0.00,North,0,0.0,0.0,27,0.00,,,0.00,VWS V13.01,2013-04-27 05:35:00,
2013-04-27 01:40:00,51.4,18.6,0.00,North,0,0.0,0.0,27,0.00,,,0.00,VWS V13.01,2013-04-27 05:40:00,
2013-04-27 01:45:00,51.4,18.6,0.00,North,0,0.0,0.0,27,0.00,,,0.00,VWS V13.01,2013-04-27 05:45:00,
2013-04-27 01:50:00,51.4,18.6,0.00,North,0,0.0,0.0,27,0.00,,,0.00,VWS V13.01,2013-04-27 05:50:00,
2013-04-27 01:55:00,51.4,18.6,0.00,North,0,0.0,0.0,27,0.00,,,0.00,VWS V13.01,2013-04-27 05:55:00,
2013-04-27 02:00:00,51.4,20.3,0.00,North,0,0.0,0.0,29,0.00,,,0.00,VWS V13.01,2013-04-27 06:00:00,
2013-04-27 02:05:00,51.4,20.3,0.00,North,0,0.0,0.0,29,0.00,,,0.00,VWS V13.01,2013-04-27 06:05:00,
2013-04-27 02:10:00,51.4,20.3,0.00,North,0,0.0,0.0,29,0.00,,,0.00,VWS V13.01,2013-04-27 06:10:00,
2013-04-27 02:15:00,51.4,20.3,0.00,North,0,0.0,0.0,29,0.00,,,0.00,VWS V13.01,2013-04-27 06:15:00,
2013-04-27 02:20:00,51.4,20.3,0.00,North,0,0.0,0.0,29,0.00,,,0.00,VWS V13.01,2013-04-27 06:20:00,
2013-04-27 02:25:00,51.4,20.3,0.00,North,0,0.0,0.0,29,0.00,,,0.00,VWS V13.01,2013-04-27 06:25:00,
2013-04-27 02:30:00,51.4,21.1,0.00,North,0,0.0,0.0,30,0.00,,,0.00,VWS V13.01,2013-04-27 06:30:00,
2013-04-27 02:35:00,51.4,21.1,0.00,North,0,0.0,0.0,30,0.00,,,0.00,VWS V13.01,2013-04-27 06:35:00,
2013-04-27 02:40:00,51.6,21.2,0.00,North,0,0.0,0.0,30,0.00,,,0.00,VWS V13.01,2013-04-27 06:40:00,
2013-04-27 02:45:00,51.6,21.2,0.00,North,0,0.0,0.0,30,0.00,,,0.00,VWS V13.01,2013-04-27 06:45:00,
2013-04-27 02:50:00,51.6,21.2,0.00,North,0,0.0,0.0,30,0.00,,,0.00,VWS V13.01,2013-04-27 06:50:00,
2013-04-27 02:55:00,51.6,21.2,0.00,North,0,0.0,0.0,30,0.00,,,0.00,VWS V13.01,2013-04-27 06:55:00,
2013-04-27 03:00:00,51.6,21.2,0.00,North,0,0.0,0.0,30,0.00,,,0.00,VWS V13.01,2013-04-27 07:00:00,
2013-04-27 03:05:00,51.6,21.2,0.00,North,0,0.0,0.0,30,0.00,,,0.00,VWS V13.01,2013-04-27 07:05:00,
2013-04-27 03:10:00,51.6,21.2,0.00,North,0,0.0,0.0,30,0.00,,,0.00,VWS V13.01,2013-04-27 07:10:00,
2013-04-27 03:15:00,51.6,21.2,0.00,North,0,0.0,0.0,30,0.00,,,0.00,VWS V13.01,2013-04-27 07:15:00,
2013-04-27 03:20:00,51.6,21.2,0.00,North,0,0.0,0.0,30,0.00,,,0.00,VWS V13.01,2013-04-27 07:20:00,
2013-04-27 03:25:00,51.4,21.8,0.00,North,0,0.0,0.0,31,0.00,,,0.00,VWS V13.01,2013-04-27 07:25:00,
2013-04-27 03:30:00,51.3,21.7,0.00,North,0,0.0,0.0,31,0.00,,,0.00,VWS V13.01,2013-04-27 07:30:00,
2013-04-27 03:35:00,51.3,21.7,0.00,North,0,0.0,0.0,31,0.00,,,0.00,VWS V13.01,2013-04-27 07:35:00,
2013-04-27 03:40:00,51.3,21.7,0.00,North,0,0.0,0.0,31,0.00,,,0.00,VWS V13.01,2013-04-27 07:40:00,
2013-04-27 03:45:00,51.1,22.3,0.00,North,0,0.0,0.0,32,0.00,,,0.00,VWS V13.01,2013-04-27 07:45:00,
2013-04-27 03:50:00,51.1,22.3,0.00,North,0,0.0,0.0,32,0.00,,,0.00,VWS V13.01,2013-04-27 07:50:00,
2013-04-27 03:55:00,51.1,22.3,0.00,North,0,0.0,0.0,32,0.00,,,0.00,VWS V13.01,2013-04-27 07:55:00,
2013-04-27 04:00:00,51.1,22.3,0.00,North,0,0.0,0.0,32,0.00,,,0.00,VWS V13.01,2013-04-27 08:00:00,
2013-04-27 04:05:00,51.1,22.3,0.00,North,0,0.0,0.0,32,0.00,,,0.00,VWS V13.01,2013-04-27 08:05:00,
2013-04-27 04:10:00,51.1,22.3,0.00,North,0,0.0,0.0,32,0.00,,,0.00,VWS V13.01,2013-04-27 08:10:00,
2013-04-27 04:15:00,51.1,23.7,0.00,North,0,0.0,0.0,34,0.00,,,0.00,VWS V13.01,2013-04-27 08:15:00,
2013-04-27 04:20:00,51.1,23.7,0.00,North,0,0.0,0.0,34,0.00,,,0.00,VWS V13.01,2013-04-27 08:20:00,
2013-04-27 04:25:00,51.1,24.4,0.00,North,0,0.0,0.0,35,0.00,,,0.00,VWS V13.01,2013-04-27 08:25:00,
2013-04-27 04:30:00,51.1,24.4,0.00,North,0,0.0,0.0,35,0.00,,,0.00,VWS V13.01,2013-04-27 08:30:00,
2013-04-27 04:35:00,51.1,24.4,0.00,North,0,0.0,0.0,35,0.00,,,0.00,VWS V13.01,2013-04-27 08:35:00,
2013-04-27 04:40:00,51.1,25.1,0.00,North,0,0.0,0.0,36,0.00,,,0.00,VWS V13.01,2013-04-27 08:40:00,
2013-04-27 04:45:00,51.1,25.1,0.00,North,0,0.0,0.0,36,0.00,,,0.00,VWS V13.01,2013-04-27 08:45:00,
2013-04-27 04:50:00,51.1,25.1,0.00,North,0,0.0,0.0,36,0.00,,,0.00,VWS V13.01,2013-04-27 08:50:00,
2013-04-27 04:55:00,51.1,25.1,0.00,North,0,0.0,0.0,36,0.00,,,0.00,VWS V13.01,2013-04-27 08:55:00,
2013-04-27 05:00:00,50.9,24.9,0.00,North,0,0.0,0.0,36,0.00,,,0.00,VWS V13.01,2013-04-27 09:00:00,
2013-04-27 05:05:00,50.9,24.9,0.00,North,0,0.0,0.0,36,0.00,,,0.00,VWS V13.01,2013-04-27 09:05:00,
2013-04-27 05:10:00,50.9,24.9,0.00,North,0,0.0,0.0,36,0.00,,,0.00,VWS V13.01,2013-04-27 09:10:00,
2013-04-27 05:15:00,50.9,25.6,0.00,North,0,0.0,0.0,37,0.00,,,0.00,VWS V13.01,2013-04-27 09:15:00,
2013-04-27 05:20:00,50.7,25.4,0.00,North,0,0.0,0.0,37,0.00,,,0.00,VWS V13.01,2013-04-27 09:20:00,
2013-04-27 05:25:00,50.7,25.4,0.00,North,0,0.0,0.0,37,0.00,,,0.00,VWS V13.01,2013-04-27 09:25:00,
2013-04-27 05:30:00,50.7,24.8,0.00,North,0,0.0,0.0,36,0.00,,,0.00,VWS V13.01,2013-04-27 09:30:00,
2013-04-27 05:35:00,50.7,25.4,0.00,North,0,0.0,0.0,37,0.00,,,0.00,VWS V13.01,2013-04-27 09:35:00,
2013-04-27 05:40:00,50.7,25.4,0.00,North,0,0.0,0.0,37,0.00,,,0.00,VWS V13.01,2013-04-27 09:40:00,
2013-04-27 05:45:00,50.7,25.4,0.00,North,0,0.0,0.0,37,0.00,,,0.00,VWS V13.01,2013-04-27 09:45:00,
2013-04-27 05:50:00,50.5,25.2,0.00,North,0,0.0,0.0,37,0.00,,,0.00,VWS V13.01,2013-04-27 09:50:00,
2013-04-27 05:55:00,50.5,25.2,0.00,North,0,0.0,0.0,37,0.00,,,0.00,VWS V13.01,2013-04-27 09:55:00,
2013-04-27 06:00:00,50.5,25.2,0.00,North,0,0.0,0.0,37,0.00,,,0.00,VWS V13.01,2013-04-27 10:00:00,
2013-04-27 06:05:00,50.5,25.2,0.00,North,0,0.0,0.0,37,0.00,,,0.00,VWS V13.01,2013-04-27 10:05:00,
2013-04-27 06:10:00,50.5,25.2,0.00,North,0,0.0,0.0,37,0.00,,,0.00,VWS V13.01,2013-04-27 10:10:00,
2013-04-27 06:15:00,50.5,25.2,0.00,North,0,0.0,0.0,37,0.00,,,0.00,VWS V13.01,2013-04-27 10:15:00,
2013-04-27 06:20:00,50.4,25.1,0.00,North,0,0.0,0.0,37,0.00,,,0.00,VWS V13.01,2013-04-27 10:20:00,
2013-04-27 06:25:00,50.4,25.1,0.00,North,0,0.0,0.0,37,0.00,,,0.00,VWS V13.01,2013-04-27 10:25:00,
2013-04-27 06:30:00,50.4,25.1,0.00,North,0,0.0,0.0,37,0.00,,,0.00,VWS V13.01,2013-04-27 10:30:00,
2013-04-27 06:35:00,50.4,25.7,0.00,North,0,0.0,0.0,38,0.00,,,0.00,VWS V13.01,2013-04-27 10:35:00,
2013-04-27 06:40:00,50.4,25.7,0.00,North,0,0.0,0.0,38,0.00,,,0.00,VWS V13.01,2013-04-27 10:40:00,
2013-04-27 06:45:00,50.2,25.6,0.00,North,0,0.0,0.0,38,0.00,,,0.00,VWS V13.01,2013-04-27 10:45:00,
2013-04-27 06:50:00,50.4,25.7,0.00,North,0,0.0,0.0,38,0.00,,,0.00,VWS V13.01,2013-04-27 10:50:00,
2013-04-27 06:55:00,50.4,25.7,0.00,North,0,0.0,0.0,38,0.00,,,0.00,VWS V13.01,2013-04-27 10:55:00,
2013-04-27 07:00:00,50.4,25.7,0.00,North,0,0.0,0.0,38,0.00,,,0.00,VWS V13.01,2013-04-27 11:00:00,
2013-04-27 07:05:00,50.4,25.7,0.00,North,0,0.0,0.0,38,0.00,,,0.00,VWS V13.01,2013-04-27 11:05:00,
2013-04-27 07:10:00,50.4,25.7,0.00,North,0,0.0,0.0,38,0.00,,,0.00,VWS V13.01,2013-04-27 11:10:00,
2013-04-27 07:15:00,50.4,25.7,0.00,North,0,0.0,0.0,38,0.00,,,0.00,VWS V13.01,2013-04-27 11:15:00,
2013-04-27 07:20:00,50.4,25.7,0.00,North,0,0.0,0.0,38,0.00,,,0.00,VWS V13.01,2013-04-27 11:20:00,
2013-04-27 07:25:00,50.4,25.7,0.00,North,0,0.0,0.0,38,0.00,,,0.00,VWS V13.01,2013-04-27 11:25:00,
2013-04-27 07:30:00,50.4,25.7,0.00,North,0,0.0,0.0,38,0.00,,,0.00,VWS V13.01,2013-04-27 11:30:00,
2013-04-27 07:35:00,50.4,25.7,0.00,North,0,0.0,0.0,38,0.00,,,0.00,VWS V13.01,2013-04-27 11:35:00,
2013-04-27 07:40:00,50.4,26.4,0.00,North,0,0.0,0.0,39,0.00,,,0.00,VWS V13.01,2013-04-27 11:40:00,
2013-04-27 07:45:00,50.4,25.7,0.00,North,0,0.0,0.0,38,0.00,,,0.00,VWS V13.01,2013-04-27 11:45:00,
2013-04-27 07:50:00,50.5,25.9,0.00,North,0,0.0,0.0,38,0.00,,,0.00,VWS V13.01,2013-04-27 11:50:00,
2013-04-27 07:55:00,50.7,26.0,0.00,North,0,0.0,0.0,38,0.00,,,0.00,VWS V13.01,2013-04-27 11:55:00,
2013-04-27 08:00:00,50.9,25.6,0.00,North,0,0.0,0.0,37,0.00,,,0.00,VWS V13.01,2013-04-27 12:00:00,
2013-04-27 08:05:00,51.1,25.7,0.00,North,0,0.0,0.0,37,0.00,,,0.00,VWS V13.01,2013-04-27 12:05:00,
2013-04-27 08:10:00,51.3,25.9,0.00,North,0,0.0,0.0,37,0.00,,,0.00,VWS V13.01,2013-04-27 12:10:00,
2013-04-27 08:15:00,51.3,25.9,0.00,North,0,0.0,0.0,37,0.00,,,0.00,VWS V13.01,2013-04-27 12:15:00,
2013-04-27 08:20:00,51.4,25.4,0.00,North,0,0.0,0.0,36,0.00,,,0.00,VWS V13.01,2013-04-27 12:20:00,
2013-04-27 08:25:00,51.6,24.2,0.00,North,0,0.0,0.0,34,0.00,,,0.00,VWS V13.01,2013-04-27 12:25:00,
2013-04-27 08:30:00,52.0,23.1,0.00,North,0,0.0,0.0,32,0.00,,,0.00,VWS V13.01,2013-04-27 12:30:00,
2013-04-27 08:35:00,52.3,20.2,0.00,North,0,0.0,0.0,28,0.00,,,0.00,VWS V13.01,2013-04-27 12:35:00,
2013-04-27 08:40:00,52.7,19.7,0.00,North,0,0.0,0.0,27,0.00,,,0.00,VWS V13.01,2013-04-27 12:40:00,
2013-04-27 08:45:00,53.1,20.0,0.00,North,0,0.0,0.0,27,0.00,,,0.00,VWS V13.01,2013-04-27 12:45:00,
2013-04-27 08:50:00,53.1,20.0,0.00,North,0,0.0,0.0,27,0.00,,,0.00,VWS V13.01,2013-04-27 12:50:00,
2013-04-27 08:55:00,53.2,21.0,0.00,North,0,0.0,0.0,28,0.00,,,0.00,VWS V13.01,2013-04-27 12:55:00,
2013-04-27 09:00:00,53.4,20.3,0.00,North,0,0.0,0.0,27,0.00,,,0.00,VWS V13.01,2013-04-27 13:00:00,
2013-04-27 09:05:00,53.4,20.3,0.00,North,0,0.0,0.0,27,0.00,,,0.00,VWS V13.01,2013-04-27 13:05:00,
2013-04-27 09:10:00,53.6,19.6,0.00,North,0,0.0,0.0,26,0.00,,,0.00,VWS V13.01,2013-04-27 13:10:00,
2013-04-27 09:15:00,53.8,19.7,0.00,North,0,0.0,0.0,26,0.00,,,0.00,VWS V13.01,2013-04-27 13:15:00,
2013-04-27 09:20:00,54.0,19.9,0.00,North,0,0.0,0.0,26,0.00,,,0.00,VWS V13.01,2013-04-27 13:20:00,
2013-04-27 09:25:00,54.5,20.3,0.00,North,0,0.0,0.0,26,0.00,,,0.00,VWS V13.01,2013-04-27 13:25:00,
2013-04-27 09:30:00,54.9,19.7,0.00,North,0,0.0,0.0,25,0.00,,,0.00,VWS V13.01,2013-04-27 13:30:00,
2013-04-27 09:35:00,55.6,15.2,0.00,North,0,0.0,0.0,20,0.00,,,0.00,VWS V13.01,2013-04-27 13:35:00,
2013-04-27 09:40:00,55.9,15.5,0.00,North,0,0.0,0.0,20,0.00,,,0.00,VWS V13.01,2013-04-27 13:40:00,
2013-04-27 09:48:00,56.5,12.2,0.00,North,0,0.0,0.0,17,0.00,,,0.00,VWS V13.01,2013-04-27 13:48:00,
2013-04-27 09:53:00,56.5,12.2,0.00,North,0,0.0,0.0,17,0.00,,,0.00,VWS V13.01,2013-04-27 13:53:00,
2013-04-27 09:58:00,56.7,12.4,0.00,North,0,0.0,0.0,17,0.00,,,0.00,VWS V13.01,2013-04-27 13:58:00,
2013-04-27 10:03:00,56.7,12.4,0.00,North,0,0.0,0.0,17,0.00,,,0.00,VWS V13.01,2013-04-27 14:03:00,
2013-04-27 10:08:00,56.7,16.1,0.00,North,0,0.0,0.0,20,0.00,,,0.00,VWS V13.01,2013-04-27 14:08:00,
2013-04-27 10:13:00,56.8,16.2,0.00,North,0,0.0,0.0,20,0.00,,,0.00,VWS V13.01,2013-04-27 14:13:00,
2013-04-27 10:18:00,56.8,16.2,0.00,North,0,0.0,0.0,20,0.00,,,0.00,VWS V13.01,2013-04-27 14:18:00,
2013-04-27 10:23:00,57.0,16.4,0.00,North,0,0.0,0.0,20,0.00,,,0.00,VWS V13.01,2013-04-27 14:23:00,
2013-04-27 10:28:00,57.2,15.3,0.00,North,0,0.0,0.0,19,0.00,,,0.00,VWS V13.01,2013-04-27 14:28:00,
2013-04-27 10:33:00,57.4,12.9,0.00,North,0,0.0,0.0,17,0.00,,,0.00,VWS V13.01,2013-04-27 14:33:00,
2013-04-27 10:38:00,57.6,15.6,0.00,North,0,0.0,0.0,19,0.00,,,0.00,VWS V13.01,2013-04-27 14:38:00,
2013-04-27 10:43:00,57.6,15.6,0.00,North,0,0.0,0.0,19,0.00,,,0.00,VWS V13.01,2013-04-27 14:43:00,
2013-04-27 10:48:00,57.6,13.1,0.00,North,0,0.0,0.0,17,0.00,,,0.00,VWS V13.01,2013-04-27 14:48:00,
2013-04-27 10:53:00,57.4,15.5,0.00,North,0,0.0,0.0,19,0.00,,,0.00,VWS V13.01,2013-04-27 14:53:00,
2013-04-27 10:58:00,57.2,15.3,0.00,North,0,0.0,0.0,19,0.00,,,0.00,VWS V13.01,2013-04-27 14:58:00,
2013-04-27 11:03:00,57.4,15.5,0.00,North,0,0.0,0.0,19,0.00,,,0.00,VWS V13.01,2013-04-27 15:03:00,
2013-04-27 11:08:00,57.4,15.5,0.00,North,0,0.0,0.0,19,0.00,,,0.00,VWS V13.01,2013-04-27 15:08:00,
2013-04-27 11:13:00,57.4,15.5,0.00,North,0,0.0,0.0,19,0.00,,,0.00,VWS V13.01,2013-04-27 15:13:00,
2013-04-27 11:18:00,57.4,15.5,0.00,North,0,0.0,0.0,19,0.00,,,0.00,VWS V13.01,2013-04-27 15:18:00,
2013-04-27 11:23:00,57.4,18.9,0.00,North,0,0.0,0.0,22,0.00,,,0.00,VWS V13.01,2013-04-27 15:23:00,
2013-04-27 11:28:00,57.6,15.6,0.00,North,0,0.0,0.0,19,0.00,,,0.00,VWS V13.01,2013-04-27 15:28:00,
2013-04-27 11:33:00,57.6,19.0,0.00,North,0,0.0,0.0,22,0.00,,,0.00,VWS V13.01,2013-04-27 15:33:00,
2013-04-27 11:38:00,57.6,19.0,0.00,North,0,0.0,0.0,22,0.00,,,0.00,VWS V13.01,2013-04-27 15:38:00,
2013-04-27 11:43:00,57.7,19.2,0.00,North,0,0.0,0.0,22,0.00,,,0.00,VWS V13.01,2013-04-27 15:43:00,
2013-04-27 11:48:00,58.1,19.5,0.00,North,0,0.0,0.0,22,0.00,,,0.00,VWS V13.01,2013-04-27 15:48:00,
2013-04-27 11:53:00,58.1,19.5,0.00,North,0,0.0,0.0,22,0.00,,,0.00,VWS V13.01,2013-04-27 15:53:00,
2013-04-27 11:58:00,58.3,19.6,0.00,North,0,0.0,0.0,22,0.00,,,0.00,VWS V13.01,2013-04-27 15:58:00,
2013-04-27 12:03:00,58.3,16.2,0.00,North,0,0.0,0.0,19,0.00,,,0.00,VWS V13.01,2013-04-27 16:03:00,
2013-04-27 12:08:00,58.5,16.4,0.00,North,0,0.0,0.0,19,0.00,,,0.00,VWS V13.01,2013-04-27 16:08:00,
2013-04-27 12:13:00,58.5,16.4,0.00,North,0,0.0,0.0,19,0.00,,,0.00,VWS V13.01,2013-04-27 16:13:00,
2013-04-27 12:18:00,58.5,16.4,0.00,North,0,0.0,0.0,19,0.00,,,0.00,VWS V13.01,2013-04-27 16:18:00,
2013-04-27 12:23:00,58.5,16.4,0.00,North,0,0.0,0.0,19,0.00,,,0.00,VWS V13.01,2013-04-27 16:23:00,
2013-04-27 12:28:00,58.6,19.9,0.00,North,0,0.0,0.0,22,0.00,,,0.00,VWS V13.01,2013-04-27 16:28:00,
2013-04-27 12:33:00,58.6,19.9,0.00,North,0,0.0,0.0,22,0.00,,,0.00,VWS V13.01,2013-04-27 16:33:00,
2013-04-27 12:39:00,58.5,19.8,0.00,North,0,0.0,0.0,22,0.00,,,0.00,VWS V13.01,2013-04-27 16:39:00,
2013-04-27 12:44:00,58.5,19.8,0.00,North,0,0.0,0.0,22,0.00,,,0.00,VWS V13.01,2013-04-27 16:44:00,
2013-04-27 12:49:00,58.5,21.8,0.00,North,0,0.0,0.0,24,0.00,,,0.00,VWS V13.01,2013-04-27 16:49:00,
2013-04-27 12:54:00,58.5,21.8,0.00,North,0,0.0,0.0,24,0.00,,,0.00,VWS V13.01,2013-04-27 16:54:00,
2013-04-27 12:59:00,58.5,22.8,0.00,North,0,0.0,0.0,25,0.00,,,0.00,VWS V13.01,2013-04-27 16:59:00,
2013-04-27 13:04:00,58.5,21.8,0.00,North,0,0.0,0.0,24,0.00,,,0.00,VWS V13.01,2013-04-27 17:04:00,
2013-04-27 13:09:00,58.5,21.8,0.00,North,0,0.0,0.0,24,0.00,,,0.00,VWS V13.01,2013-04-27 17:09:00,
2013-04-27 13:14:00,58.6,22.0,0.00,North,0,0.0,0.0,24,0.00,,,0.00,VWS V13.01,2013-04-27 17:14:00,
2013-04-27 13:19:00,58.8,22.1,0.00,North,0,0.0,0.0,24,0.00,,,0.00,VWS V13.01,2013-04-27 17:19:00,
2013-04-27 13:24:00,58.8,22.1,0.00,North,0,0.0,0.0,24,0.00,,,0.00,VWS V13.01,2013-04-27 17:24:00,
2013-04-27 13:29:00,59.0,22.3,0.00,North,0,0.0,0.0,24,0.00,,,0.00,VWS V13.01,2013-04-27 17:29:00,
2013-04-27 13:34:00,59.2,20.4,0.00,North,0,0.0,0.0,22,0.00,,,0.00,VWS V13.01,2013-04-27 17:34:00,
2013-04-27 13:39:00,59.2,20.4,0.00,North,0,0.0,0.0,22,0.00,,,0.00,VWS V13.01,2013-04-27 17:39:00,
2013-04-27 13:44:00,59.4,20.5,0.00,North,0,0.0,0.0,22,0.00,,,0.00,VWS V13.01,2013-04-27 17:44:00,
2013-04-27 13:49:00,59.7,20.8,0.00,North,0,0.0,0.0,22,0.00,,,0.00,VWS V13.01,2013-04-27 17:49:00,
2013-04-27 13:54:00,59.7,22.9,0.00,North,0,0.0,0.0,24,0.00,,,0.00,VWS V13.01,2013-04-27 17:54:00,
2013-04-27 13:59:00,59.7,22.9,0.00,North,0,0.0,0.0,24,0.00,,,0.00,VWS V13.01,2013-04-27 17:59:00,
2013-04-27 14:04:00,59.7,22.9,0.00,North,0,0.0,0.0,24,0.00,,,0.00,VWS V13.01,2013-04-27 18:04:00,
2013-04-27 14:09:00,59.5,23.7,0.00,North,0,0.0,0.0,25,0.00,,,0.00,VWS V13.01,2013-04-27 18:09:00,
2013-04-27 14:14:00,59.4,23.6,0.00,North,0,0.0,0.0,25,0.00,,,0.00,VWS V13.01,2013-04-27 18:14:00,
2013-04-27 14:19:00,59.4,23.6,0.00,North,0,0.0,0.0,25,0.00,,,0.00,VWS V13.01,2013-04-27 18:19:00,
2013-04-27 14:24:00,59.2,24.3,0.00,North,0,0.0,0.0,26,0.00,,,0.00,VWS V13.01,2013-04-27 18:24:00,
2013-04-27 14:29:00,59.2,25.2,0.00,North,0,0.0,0.0,27,0.00,,,0.00,VWS V13.01,2013-04-27 18:29:00,
2013-04-27 14:34:00,59.0,26.0,0.00,North,0,0.0,0.0,28,0.00,,,0.00,VWS V13.01,2013-04-27 18:34:00,
2013-04-27 14:39:00,59.0,27.6,0.00,North,0,0.0,0.0,30,0.00,,,0.00,VWS V13.01,2013-04-27 18:39:00,
2013-04-27 14:44:00,58.6,30.4,0.00,North,0,0.0,0.0,34,0.00,,,0.00,VWS V13.01,2013-04-27 18:44:00,
2013-04-27 14:49:00,58.5,30.9,0.00,North,0,0.0,0.0,35,0.00,,,0.00,VWS V13.01,2013-04-27 18:49:00,
2013-04-27 14:54:00,58.1,32.0,0.00,North,0,0.0,0.0,37,0.00,,,0.00,VWS V13.01,2013-04-27 18:54:00,
2013-04-27 14:59:00,57.9,32.5,0.00,North,0,0.0,0.0,38,0.00,,,0.00,VWS V13.01,2013-04-27 18:59:00,
2013-04-27 15:04:00,57.7,33.0,0.00,North,0,0.0,0.0,39,0.00,,,0.00,VWS V13.01,2013-04-27 19:04:00,
2013-04-27 15:09:00,57.6,34.1,0.00,North,0,0.0,0.0,41,0.00,,,0.00,VWS V13.01,2013-04-27 19:09:00,
2013-04-27 15:14:00,57.4,34.5,0.00,North,0,0.0,0.0,42,0.00,,,0.00,VWS V13.01,2013-04-27 19:14:00,
2013-04-27 15:19:00,57.2,34.3,0.00,North,0,0.0,0.0,42,0.00,,,0.00,VWS V13.01,2013-04-27 19:19:00,
2013-04-27 15:24:00,57.2,34.9,0.00,North,0,0.0,0.0,43,0.00,,,0.00,VWS V13.01,2013-04-27 19:24:00,
2013-04-27 15:29:00,57.2,36.1,0.00,North,0,0.0,0.0,45,0.00,,,0.00,VWS V13.01,2013-04-27 19:29:00,
2013-04-27 15:34:00,57.2,36.1,0.00,North,0,0.0,0.0,45,0.00,,,0.00,VWS V13.01,2013-04-27 19:34:00,
2013-04-27 15:39:00,57.0,36.5,0.00,North,0,0.0,0.0,46,0.00,,,0.00,VWS V13.01,2013-04-27 19:39:00,
2013-04-27 15:44:00,56.8,36.8,0.00,North,0,0.0,0.0,47,0.00,,,0.00,VWS V13.01,2013-04-27 19:44:00,
2013-04-27 15:49:00,56.8,36.8,0.00,North,0,0.0,0.0,47,0.00,,,0.00,VWS V13.01,2013-04-27 19:49:00,
2013-04-27 15:54:00,56.8,37.4,0.00,North,0,0.0,0.0,48,0.00,,,0.00,VWS V13.01,2013-04-27 19:54:00,
2013-04-27 15:59:00,57.0,37.5,0.00,North,0,0.0,0.0,48,0.00,,,0.00,VWS V13.01,2013-04-27 19:59:00,
2013-04-27 16:04:00,57.0,37.0,0.00,North,0,0.0,0.0,47,0.00,,,0.00,VWS V13.01,2013-04-27 20:04:00,
2013-04-27 16:09:00,57.0,37.0,0.00,North,0,0.0,0.0,47,0.00,,,0.00,VWS V13.01,2013-04-27 20:09:00,
2013-04-27 16:14:00,57.2,37.2,0.00,North,0,0.0,0.0,47,0.00,,,0.00,VWS V13.01,2013-04-27 20:14:00,
2013-04-27 16:19:00,57.2,36.6,0.00,North,0,0.0,0.0,46,0.00,,,0.00,VWS V13.01,2013-04-27 20:19:00,
2013-04-27 16:24:00,57.4,36.8,0.00,North,0,0.0,0.0,46,0.00,,,0.00,VWS V13.01,2013-04-27 20:24:00,
2013-04-27 16:29:00,57.6,36.4,0.00,North,0,0.0,0.0,45,0.00,,,0.00,VWS V13.01,2013-04-27 20:29:00,
2013-04-27 16:34:00,57.6,36.4,0.00,North,0,0.0,0.0,45,0.00,,,0.00,VWS V13.01,2013-04-27 20:34:00,
2013-04-27 16:39:00,57.9,36.7,0.00,North,0,0.0,0.0,45,0.00,,,0.00,VWS V13.01,2013-04-27 20:39:00,
2013-04-27 16:44:00,58.1,36.3,0.00,North,0,0.0,0.0,44,0.00,,,0.00,VWS V13.01,2013-04-27 20:44:00,
2013-04-27 16:49:00,58.1,35.2,0.00,North,0,0.0,0.0,42,0.00,,,0.00,VWS V13.01,2013-04-27 20:49:00,
2013-04-27 16:54:00,58.3,34.7,0.00,North,0,0.0,0.0,41,0.00,,,0.00,VWS V13.01,2013-04-27 20:54:00,
2013-04-27 16:59:00,58.5,34.2,0.00,North,0,0.0,0.0,40,0.00,,,0.00,VWS V13.01,2013-04-27 20:59:00,
2013-04-27 17:04:00,58.5,34.2,0.00,North,0,0.0,0.0,40,0.00,,,0.00,VWS V13.01,2013-04-27 21:04:00,
2013-04-27 17:09:00,58.5,33.6,0.00,North,0,0.0,0.0,39,0.00,,,0.00,VWS V13.01,2013-04-27 21:09:00,
2013-04-27 17:14:00,58.6,34.4,0.00,North,0,0.0,0.0,40,0.00,,,0.00,VWS V13.01,2013-04-27 21:14:00,
2013-04-27 17:19:00,58.8,34.6,0.00,North,0,0.0,0.0,40,0.00,,,0.00,VWS V13.01,2013-04-27 21:19:00,
2013-04-27 17:24:00,58.8,33.9,0.00,North,0,0.0,0.0,39,0.00,,,0.00,VWS V13.01,2013-04-27 21:24:00,
2013-04-27 17:29:00,58.8,34.6,0.00,North,0,0.0,0.0,40,0.00,,,0.00,VWS V13.01,2013-04-27 21:29:00,
2013-04-27 17:34:00,58.8,34.6,0.00,North,0,0.0,0.0,40,0.00,,,0.00,VWS V13.01,2013-04-27 21:34:00,
2013-04-27 17:39:00,58.8,33.9,0.00,North,0,0.0,0.0,39,0.00,,,0.00,VWS V13.01,2013-04-27 21:39:00,
2013-04-27 17:44:00,58.8,33.9,0.00,North,0,0.0,0.0,39,0.00,,,0.00,VWS V13.01,2013-04-27 21:44:00,
2013-04-27 17:49:00,58.8,33.9,0.00,North,0,0.0,0.0,39,0.00,,,0.00,VWS V13.01,2013-04-27 21:49:00,
2013-04-27 17:54:00,59.0,33.5,0.00,North,0,0.0,0.0,38,0.00,,,0.00,VWS V13.01,2013-04-27 21:54:00,
2013-04-27 17:59:00,58.8,33.3,0.00,North,0,0.0,0.0,38,0.00,,,0.00,VWS V13.01,2013-04-27 21:59:00,
2013-04-27 18:04:00,58.8,33.3,0.00,North,0,0.0,0.0,38,0.00,,,0.00,VWS V13.01,2013-04-27 22:04:00,
2013-04-27 18:09:00,58.8,33.9,0.00,North,0,0.0,0.0,39,0.00,,,0.00,VWS V13.01,2013-04-27 22:09:00,
2013-04-27 18:14:00,58.8,33.9,0.00,North,0,0.0,0.0,39,0.00,,,0.00,VWS V13.01,2013-04-27 22:14:00,
2013-04-27 18:19:00,58.8,33.9,0.00,North,0,0.0,0.0,39,0.00,,,0.00,VWS V13.01,2013-04-27 22:19:00,
2013-04-27 18:24:00,58.8,33.9,0.00,North,0,0.0,0.0,39,0.00,,,0.00,VWS V13.01,2013-04-27 22:24:00,
2013-04-27 18:29:00,58.6,33.8,0.00,North,0,0.0,0.0,39,0.00,,,0.00,VWS V13.01,2013-04-27 22:29:00,
2013-04-27 18:34:00,58.6,34.4,0.00,North,0,0.0,0.0,40,0.00,,,0.00,VWS V13.01,2013-04-27 22:34:00,
2013-04-27 18:39:00,58.6,34.4,0.00,North,0,0.0,0.0,40,0.00,,,0.00,VWS V13.01,2013-04-27 22:39:00,
2013-04-27 18:44:00,58.6,34.4,0.00,North,0,0.0,0.0,40,0.00,,,0.00,VWS V13.01,2013-04-27 22:44:00,
2013-04-27 18:49:00,58.6,34.4,0.00,North,0,0.0,0.0,40,0.00,,,0.00,VWS V13.01,2013-04-27 22:49:00,
2013-04-27 18:54:00,58.6,34.4,0.00,North,0,0.0,0.0,40,0.00,,,0.00,VWS V13.01,2013-04-27 22:54:00,
2013-04-27 18:59:00,58.6,34.4,0.00,North,0,0.0,0.0,40,0.00,,,0.00,VWS V13.01,2013-04-27 22:59:00,
2013-04-27 19:04:00,58.6,34.4,0.00,North,0,0.0,0.0,40,0.00,,,0.00,VWS V13.01,2013-04-27 23:04:00,
2013-04-27 19:09:00,58.6,34.4,0.00,North,0,0.0,0.0,40,0.00,,,0.00,VWS V13.01,2013-04-27 23:09:00,
2013-04-27 19:14:00,58.6,34.4,0.00,North,0,0.0,0.0,40,0.00,,,0.00,VWS V13.01,2013-04-27 23:14:00,
2013-04-27 19:19:00,58.6,34.4,0.00,North,0,0.0,0.0,40,0.00,,,0.00,VWS V13.01,2013-04-27 23:19:00,
2013-04-27 19:24:00,58.6,35.0,0.00,North,0,0.0,0.0,41,0.00,,,0.00,VWS V13.01,2013-04-27 23:24:00,
2013-04-27 19:29:00,58.6,34.4,0.00,North,0,0.0,0.0,40,0.00,,,0.00,VWS V13.01,2013-04-27 23:29:00,
2013-04-27 19:34:00,58.6,35.0,0.00,North,0,0.0,0.0,41,0.00,,,0.00,VWS V13.01,2013-04-27 23:34:00,
2013-04-27 19:39:00,58.6,35.0,0.00,North,0,0.0,0.0,41,0.00,,,0.00,VWS V13.01,2013-04-27 23:39:00,
2013-04-27 19:44:00,58.5,34.9,0.00,North,0,0.0,0.0,41,0.00,,,0.00,VWS V13.01,2013-04-27 23:44:00,
2013-04-27 19:49:00,58.5,35.5,0.00,North,0,0.0,0.0,42,0.00,,,0.00,VWS V13.01,2013-04-27 23:49:00,
2013-04-27 19:54:00,58.5,36.1,0.00,North,0,0.0,0.0,43,0.00,,,0.00,VWS V13.01,2013-04-27 23:54:00,
2013-04-27 19:59:00,58.3,37.0,0.00,North,0,0.0,0.0,45,0.00,,,0.00,VWS V13.01,2013-04-27 23:59:00,
2013-04-27 20:04:00,58.1,36.9,0.00,North,0,0.0,0.0,45,0.00,,,0.00,VWS V13.01,2013-04-28 00:04:00,
2013-04-27 20:09:00,57.9,37.3,0.00,North,0,0.0,0.0,46,0.00,,,0.00,VWS V13.01,2013-04-28 00:09:00,
2013-04-27 20:14:00,57.7,37.7,0.00,North,0,0.0,0.0,47,0.00,,,0.00,VWS V13.01,2013-04-28 00:14:00,
2013-04-27 20:19:00,57.6,38.0,0.00,North,0,0.0,0.0,48,0.00,,,0.00,VWS V13.01,2013-04-28 00:19:00,
2013-04-27 20:24:00,57.6,38.6,0.00,North,0,0.0,0.0,49,0.00,,,0.00,VWS V13.01,2013-04-28 00:24:00,
2013-04-27 20:29:00,57.4,38.9,0.00,North,0,0.0,0.0,50,0.00,,,0.00,VWS V13.01,2013-04-28 00:29:00,
2013-04-27 20:34:00,57.4,38.9,0.00,North,0,0.0,0.0,50,0.00,,,0.00,VWS V13.01,2013-04-28 00:34:00,
2013-04-27 20:39:00,57.4,38.4,0.00,North,0,0.0,0.0,49,0.00,,,0.00,VWS V13.01,2013-04-28 00:39:00,
2013-04-27 20:44:00,57.4,38.4,0.00,North,0,0.0,0.0,49,0.00,,,0.00,VWS V13.01,2013-04-28 00:44:00,
2013-04-27 20:49:00,57.4,38.9,0.00,North,0,0.0,0.0,50,0.00,,,0.00,VWS V13.01,2013-04-28 00:49:00,
2013-04-27 20:54:00,57.4,39.4,0.00,North,0,0.0,0.0,51,0.00,,,0.00,VWS V13.01,2013-04-28 00:54:00,
2013-04-27 20:59:00,57.2,39.2,0.00,North,0,0.0,0.0,51,0.00,,,0.00,VWS V13.01,2013-04-28 00:59:00,
2013-04-27 21:04:00,57.2,40.2,0.00,North,0,0.0,0.0,53,0.00,,,0.00,VWS V13.01,2013-04-28 01:04:00,
2013-04-27 21:09:00,57.0,40.6,0.00,North,0,0.0,0.0,54,0.00,,,0.00,VWS V13.01,2013-04-28 01:09:00,
2013-04-27 21:14:00,57.0,40.6,0.00,North,0,0.0,0.0,54,0.00,,,0.00,VWS V13.01,2013-04-28 01:14:00,
2013-04-27 21:19:00,57.2,40.2,0.00,North,0,0.0,0.0,53,0.00,,,0.00,VWS V13.01,2013-04-28 01:19:00,
2013-04-27 21:24:00,57.2,40.2,0.00,North,0,0.0,0.0,53,0.00,,,0.00,VWS V13.01,2013-04-28 01:24:00,
2013-04-27 21:29:00,57.2,40.2,0.00,North,0,0.0,0.0,53,0.00,,,0.00,VWS V13.01,2013-04-28 01:29:00,
2013-04-27 21:34:00,57.2,40.7,0.00,North,0,0.0,0.0,54,0.00,,,0.00,VWS V13.01,2013-04-28 01:34:00,
2013-04-27 21:39:00,57.2,40.7,0.00,North,0,0.0,0.0,54,0.00,,,0.00,VWS V13.01,2013-04-28 01:39:00,
2013-04-27 21:44:00,57.2,40.7,0.00,North,0,0.0,0.0,54,0.00,,,0.00,VWS V13.01,2013-04-28 01:44:00,
2013-04-27 21:49:00,57.2,40.2,0.00,North,0,0.0,0.0,53,0.00,,,0.00,VWS V13.01,2013-04-28 01:49:00,
2013-04-27 21:54:00,57.2,40.2,0.00,North,0,0.0,0.0,53,0.00,,,0.00,VWS V13.01,2013-04-28 01:54:00,
2013-04-27 21:59:00,57.2,40.2,0.00,North,0,0.0,0.0,53,0.00,,,0.00,VWS V13.01,2013-04-28 01:59:00,
2013-04-27 22:04:00,57.2,40.2,0.00,North,0,0.0,0.0,53,0.00,,,0.00,VWS V13.01,2013-04-28 02:04:00,
2013-04-27 22:09:00,57.2,40.2,0.00,North,0,0.0,0.0,53,0.00,,,0.00,VWS V13.01,2013-04-28 02:09:00,
2013-04-27 22:14:00,57.2,40.2,0.00,North,0,0.0,0.0,53,0.00,,,0.00,VWS V13.01,2013-04-28 02:14:00,
2013-04-27 22:19:00,57.2,40.7,0.00,North,0,0.0,0.0,54,0.00,,,0.00,VWS V13.01,2013-04-28 02:19:00,
2013-04-27 22:24:00,57.0,41.5,0.00,North,0,0.0,0.0,56,0.00,,,0.00,VWS V13.01,2013-04-28 02:24:00,
2013-04-27 22:29:00,57.0,41.5,0.00,North,0,0.0,0.0,56,0.00,,,0.00,VWS V13.01,2013-04-28 02:29:00,
2013-04-27 22:34:00,57.0,41.5,0.00,North,0,0.0,0.0,56,0.00,,,0.00,VWS V13.01,2013-04-28 02:34:00,
2013-04-27 22:39:00,57.0,42.0,0.00,North,0,0.0,0.0,57,0.00,,,0.00,VWS V13.01,2013-04-28 02:39:00,
2013-04-27 22:44:00,57.0,41.5,0.00,North,0,0.0,0.0,56,0.00,,,0.00,VWS V13.01,2013-04-28 02:44:00,
2013-04-27 22:49:00,57.2,41.2,0.00,North,0,0.0,0.0,55,0.00,,,0.00,VWS V13.01,2013-04-28 02:49:00,
2013-04-27 22:54:00,57.2,41.2,0.00,North,0,0.0,0.0,55,0.00,,,0.00,VWS V13.01,2013-04-28 02:54:00,
2013-04-27 22:59:00,57.2,40.7,0.00,North,0,0.0,0.0,54,0.00,,,0.00,VWS V13.01,2013-04-28 02:59:00,
2013-04-27 23:00:00,56.7,43.4,0.00,North,0,0.0,0.0,61,0.12,,,0.12,VWS V13.01,2013-04-28 03:00:00,
2013-04-27 23:01:00,56.7,43.4,0.00,North,0,0.0,0.0,61,0.12,,,0.12,VWS V13.01,2013-04-28 03:01:00,
2013-04-27 23:02:00,56.7,43.4,0.00,North,0,0.0,0.0,61,0.12,,,0.12,VWS V13.01,2013-04-28 03:02:00,
2013-04-27 23:03:00,56.7,43.4,0.00,North,0,0.0,0.0,61,0.12,,,0.12,VWS V13.01,2013-04-28 03:03:00,
2013-04-27 23:04:00,57.2,40.7,0.00,North,0,0.0,0.0,54,0.00,,,0.00,VWS V13.01,2013-04-28 03:04:00,
2013-04-27 23:05:00,56.7,43.4,0.00,North,0,0.0,0.0,61,0.12,,,0.12,VWS V13.01,2013-04-28 03:05:00,
2013-04-27 23:06:00,56.7,43.4,0.00,North,0,0.0,0.0,61,0.12,,,0.12,VWS V13.01,2013-04-28 03:06:00,
2013-04-27 23:09:00,57.2,40.2,0.00,North,0,0.0,0.0,53,0.00,,,0.00,VWS V13.01,2013-04-28 03:09:00,
2013-04-27 23:14:00,57.2,40.2,0.00,North,0,0.0,0.0,53,0.00,,,0.00,VWS V13.01,2013-04-28 03:14:00,
2013-04-27 23:19:00,57.4,39.9,0.00,North,0,0.0,0.0,52,0.00,,,0.00,VWS V13.01,2013-04-28 03:19:00,
2013-04-27 23:24:00,57.2,40.2,0.00,North,0,0.0,0.0,53,0.00,,,0.00,VWS V13.01,2013-04-28 03:24:00,
2013-04-27 23:29:00,57.0,41.0,0.00,North,0,0.0,0.0,55,0.00,,,0.00,VWS V13.01,2013-04-28 03:29:00,
2013-04-27 23:35:00,56.8,42.2,0.00,North,0,0.0,0.0,58,0.04,,,0.04,VWS V13.01,2013-04-28 03:35:00,
2013-04-27 23:40:00,56.8,42.7,0.00,North,0,0.0,0.0,59,0.08,,,0.08,VWS V13.01,2013-04-28 03:40:00,
2013-04-27 23:45:00,56.7,43.0,0.00,North,0,0.0,0.0,60,0.08,,,0.08,VWS V13.01,2013-04-28 03:45:00,
2013-04-27 23:50:00,56.7,43.4,0.00,North,0,0.0,0.0,61,0.08,,,0.08,VWS V13.01,2013-04-28 03:50:00,
2013-04-27 23:55:00,56.7,43.8,0.00,North,0,0.0,0.0,62,0.12,,,0.12,VWS V13.01,2013-04-28 03:55:00,